McCook, NE

3:18 AM CST on February 22, 2017 (GMT -0600)
McCook Municipal

Weather History for KMCK - September, 2014

Change the Weather History Date:

Wednesday, September 17, 2014

  Actual Average Record
Temperature  
Mean Temperature 68 °F 64 °F  
Max Temperature 88 °F 79 °F 100 °F (1927)
Min Temperature 47 °F 49 °F 32 °F (1981)
Cooling Degree Days 2    
Growing Degree Days 16 (Base 50)    
Moisture  
Dew Point 54 °F    
Average Humidity 85    
Maximum Humidity 100    
Minimum Humidity 39    
Precipitation  
Precipitation 0.00 in 0.05 in 0.69 in (1975)
Month to date precipitation 0.48 0.83  
Year to date precipitation 21.43 18.54  
Sea Level Pressure  
Sea Level Pressure 29.92 in    
Wind  
Wind Speed 5 mph (WNW)    
Max Wind Speed 13 mph    
Max Gust Speed -    
Visibility 5 miles    
Events Fog    
T = Trace of Precipitation, MM = Missing Value Source: NWS Daily Summary

Daily Weather History Graph

Daily Weather History Graph

Search for Another Location

Airport or City:

Trip Planner

Search our weather history database for the weather conditions in past years. The results will help you decide how hot, cold, wet, or windy it might be!

Date:

Astronomy

Sep. 17, 2014 Rise Set
Actual Time 7:25 AM CDT 7:47 PM CDT
Civil Twilight 6:57 AM CDT 8:14 PM CDT
Nautical Twilight 6:25 AM CDT 8:46 PM CDT
Astronomical Twilight 5:53 AM CDT 9:19 PM CDT
Moon 1:26 AM CDT (9/17) 3:59 PM CDT (9/17)
Length of Visible Light 13h 16m
Length of Day
12h 22m
Waning Crescent, 34% of the Moon is Illuminated
Sep 17
Waning Crescent
Sep 24
New
Oct 1
First Quarter
Oct 8
Full
Oct 15
Last Quarter

Hourly Weather History & Observations

Time (CDT) Temp. Heat Index Dew Point Humidity Pressure Visibility Wind Dir Wind Speed Gust Speed Precip Events Conditions
12:53 AM 57.0 °F - 55.0 °F 93% 29.92 in 7.0 mi North 3.5 mph - N/A   Clear
1:53 AM 55.0 °F - 53.1 °F 93% 29.92 in 5.0 mi North 4.6 mph - N/A   Clear
2:53 AM 53.1 °F - 51.1 °F 93% 29.92 in 5.0 mi NNW 5.8 mph - N/A   Clear
3:53 AM 53.1 °F - 52.0 °F 96% 29.91 in 4.0 mi NNW 4.6 mph - N/A   Clear
4:53 AM 51.1 °F - 50.0 °F 96% 29.90 in 3.0 mi WNW 3.5 mph - N/A   Clear
4:59 AM 51.1 °F - 50.0 °F 96% 29.95 in 1.8 mi West 3.5 mph - N/A   Clear
5:31 AM 51.1 °F - 50.0 °F 96% 29.94 in 3.0 mi NW 3.5 mph - N/A   Clear
5:45 AM 50.0 °F - 48.9 °F 96% 29.94 in 1.8 mi NNW 4.6 mph - N/A   Clear
5:53 AM 50.0 °F - 48.9 °F 96% 29.90 in 1.0 mi NW 4.6 mph - N/A   Clear
6:00 AM 48.9 °F - 48.9 °F 100% 29.94 in 3.0 mi NW 5.8 mph - N/A   Clear
6:26 AM 48.0 °F - 46.9 °F 96% 29.94 in 2.5 mi Calm Calm - N/A   Partly Cloudy
6:31 AM 48.0 °F - 46.9 °F 96% 29.94 in 1.2 mi Calm Calm - N/A   Mostly Cloudy
6:44 AM 48.0 °F - 46.9 °F 96% 29.94 in 0.2 mi Calm Calm - N/A Fog Fog
6:53 AM 46.9 °F - 46.9 °F 100% 29.91 in 0.2 mi WSW 3.5 mph - N/A Fog Fog
7:15 AM 48.0 °F - 48.0 °F 100% 29.94 in 2.0 mi WSW 3.5 mph - N/A   Overcast
7:23 AM 48.0 °F - 48.0 °F 100% 29.94 in 3.0 mi WSW 5.8 mph - N/A   Overcast
7:27 AM 48.0 °F - 48.0 °F 100% 29.95 in 1.5 mi WSW 5.8 mph - N/A   Overcast
7:36 AM 48.9 °F - 48.0 °F 97% 29.95 in 0.2 mi West 4.6 mph - N/A Fog Fog
7:53 AM 50.0 °F - 48.9 °F 96% 29.92 in 0.2 mi WSW 3.5 mph - N/A Fog Fog
8:53 AM 52.0 °F - 51.1 °F 97% 29.93 in 0.2 mi West 5.8 mph - N/A Fog Fog
9:46 AM 54.0 °F - 54.0 °F 100% 29.97 in 1.0 mi WSW 8.1 mph - N/A   Overcast
9:53 AM 55.0 °F - 54.0 °F 96% 29.94 in 0.5 mi WSW 5.8 mph - N/A Fog Fog
10:14 AM 55.9 °F - 55.0 °F 97% 29.96 in 2.0 mi West 4.6 mph - N/A   Overcast
10:23 AM 55.9 °F - 55.9 °F 100% 29.96 in 5.0 mi West 3.5 mph - N/A   Overcast
10:43 AM 57.0 °F - 55.9 °F 96% 29.96 in 8.0 mi SSW 8.1 mph - N/A   Scattered Clouds
10:53 AM 57.0 °F - 55.9 °F 96% 29.94 in 5.0 mi SSW 5.8 mph - N/A   Partly Cloudy
11:53 AM 68.0 °F - 57.9 °F 70% 29.92 in 10.0 mi Calm Calm - N/A   Clear
12:53 PM 73.4 °F - 60.8 °F 65% 29.95 in 10.0 mi Variable 4.6 mph - N/A   Clear
1:53 PM 80.1 °F 80.9 °F 60.1 °F 50% 29.88 in 10.0 mi South 8.1 mph - N/A   Clear
2:53 PM 84.0 °F 84.4 °F 61.0 °F 46% 29.85 in 10.0 mi East 6.9 mph - N/A   Clear
3:53 PM 87.1 °F 86.5 °F 59.0 °F 39% 29.84 in 10.0 mi ESE 9.2 mph - N/A   Clear
4:53 PM 87.1 °F 86.5 °F 59.0 °F 39% 29.83 in 10.0 mi ESE 8.1 mph - N/A   Clear
5:53 PM 84.9 °F 84.8 °F 60.1 °F 43% 29.83 in 10.0 mi East 12.7 mph - N/A   Clear
6:53 PM 80.1 °F 81.1 °F 61.0 °F 52% 29.84 in 10.0 mi East 11.5 mph - N/A   Clear
7:53 PM 75.0 °F - 61.0 °F 62% 29.85 in 10.0 mi East 10.4 mph - N/A   Clear
8:53 PM 70.0 °F - 61.0 °F 73% 29.89 in 10.0 mi ENE 8.1 mph - N/A   Clear
9:53 PM 68.0 °F - 61.0 °F 78% 29.89 in 10.0 mi East 9.2 mph - N/A   Clear
10:53 PM 66.0 °F - 61.0 °F 84% 29.91 in 10.0 mi ENE 6.9 mph - N/A   Clear
11:53 PM 64.9 °F - 61.0 °F 87% 29.91 in 10.0 mi East 5.8 mph - N/A   Clear